Index of /20260507/WXO-DD/model_rdps/10km/18/041
Name Last modified Size Description
Parent Directory -
20260506T18Z_MSC_RDPS_AbsoluteVorticity_IsbL-0250_RLatLon0.09_PT041H.grib2 2026-05-07 02:56 481K
20260506T18Z_MSC_RDPS_AbsoluteVorticity_IsbL-0500_RLatLon0.09_PT041H.grib2 2026-05-07 02:56 551K
20260506T18Z_MSC_RDPS_AbsoluteVorticity_IsbL-0700_RLatLon0.09_PT041H.grib2 2026-05-07 02:56 615K
20260506T18Z_MSC_RDPS_AbsoluteVorticity_IsbL-0850_RLatLon0.09_PT041H.grib2 2026-05-07 02:56 791K
20260506T18Z_MSC_RDPS_AirTemp_AGL-120m_RLatLon0.09_PT041H.grib2 2026-05-07 02:56 382K
20260506T18Z_MSC_RDPS_AirTemp_AGL-2m_RLatLon0.09_PT041H.grib2 2026-05-07 02:56 637K
20260506T18Z_MSC_RDPS_AirTemp_AGL-40m_RLatLon0.09_PT041H.grib2 2026-05-07 02:56 402K
20260506T18Z_MSC_RDPS_AirTemp_AGL-80m_RLatLon0.09_PT041H.grib2 2026-05-07 02:56 391K
20260506T18Z_MSC_RDPS_AirTemp_IsbL-0001_RLatLon0.09_PT041H.grib2 2026-05-07 02:56 304K
20260506T18Z_MSC_RDPS_AirTemp_IsbL-0005_RLatLon0.09_PT041H.grib2 2026-05-07 02:56 375K
20260506T18Z_MSC_RDPS_AirTemp_IsbL-0010_RLatLon0.09_PT041H.grib2 2026-05-07 02:56 357K
20260506T18Z_MSC_RDPS_AirTemp_IsbL-0020_RLatLon0.09_PT041H.grib2 2026-05-07 02:56 317K
20260506T18Z_MSC_RDPS_AirTemp_IsbL-0030_RLatLon0.09_PT041H.grib2 2026-05-07 02:56 339K
20260506T18Z_MSC_RDPS_AirTemp_IsbL-0050_RLatLon0.09_PT041H.grib2 2026-05-07 02:56 312K
20260506T18Z_MSC_RDPS_AirTemp_IsbL-0100_RLatLon0.09_PT041H.grib2 2026-05-07 02:56 422K
20260506T18Z_MSC_RDPS_AirTemp_IsbL-0150_RLatLon0.09_PT041H.grib2 2026-05-07 02:56 403K
20260506T18Z_MSC_RDPS_AirTemp_IsbL-0175_RLatLon0.09_PT041H.grib2 2026-05-07 02:56 398K
20260506T18Z_MSC_RDPS_AirTemp_IsbL-0200_RLatLon0.09_PT041H.grib2 2026-05-07 02:56 406K
20260506T18Z_MSC_RDPS_AirTemp_IsbL-0225_RLatLon0.09_PT041H.grib2 2026-05-07 02:56 407K
20260506T18Z_MSC_RDPS_AirTemp_IsbL-0250_RLatLon0.09_PT041H.grib2 2026-05-07 02:56 413K
20260506T18Z_MSC_RDPS_AirTemp_IsbL-0275_RLatLon0.09_PT041H.grib2 2026-05-07 02:56 395K
20260506T18Z_MSC_RDPS_AirTemp_IsbL-0300_RLatLon0.09_PT041H.grib2 2026-05-07 02:56 427K
20260506T18Z_MSC_RDPS_AirTemp_IsbL-0350_RLatLon0.09_PT041H.grib2 2026-05-07 02:56 415K
20260506T18Z_MSC_RDPS_AirTemp_IsbL-0400_RLatLon0.09_PT041H.grib2 2026-05-07 02:56 384K
20260506T18Z_MSC_RDPS_AirTemp_IsbL-0450_RLatLon0.09_PT041H.grib2 2026-05-07 02:56 391K
20260506T18Z_MSC_RDPS_AirTemp_IsbL-0500_RLatLon0.09_PT041H.grib2 2026-05-07 02:56 402K
20260506T18Z_MSC_RDPS_AirTemp_IsbL-0550_RLatLon0.09_PT041H.grib2 2026-05-07 02:56 419K
20260506T18Z_MSC_RDPS_AirTemp_IsbL-0600_RLatLon0.09_PT041H.grib2 2026-05-07 02:56 435K
20260506T18Z_MSC_RDPS_AirTemp_IsbL-0650_RLatLon0.09_PT041H.grib2 2026-05-07 02:56 450K
20260506T18Z_MSC_RDPS_AirTemp_IsbL-0700_RLatLon0.09_PT041H.grib2 2026-05-07 02:56 475K
20260506T18Z_MSC_RDPS_AirTemp_IsbL-0750_RLatLon0.09_PT041H.grib2 2026-05-07 02:56 519K
20260506T18Z_MSC_RDPS_AirTemp_IsbL-0800_RLatLon0.09_PT041H.grib2 2026-05-07 02:56 577K
20260506T18Z_MSC_RDPS_AirTemp_IsbL-0850_RLatLon0.09_PT041H.grib2 2026-05-07 02:56 635K
20260506T18Z_MSC_RDPS_AirTemp_IsbL-0875_RLatLon0.09_PT041H.grib2 2026-05-07 02:56 656K
20260506T18Z_MSC_RDPS_AirTemp_IsbL-0900_RLatLon0.09_PT041H.grib2 2026-05-07 02:56 664K
20260506T18Z_MSC_RDPS_AirTemp_IsbL-0925_RLatLon0.09_PT041H.grib2 2026-05-07 02:56 665K
20260506T18Z_MSC_RDPS_AirTemp_IsbL-0950_RLatLon0.09_PT041H.grib2 2026-05-07 02:56 532K
20260506T18Z_MSC_RDPS_AirTemp_IsbL-0970_RLatLon0.09_PT041H.grib2 2026-05-07 02:56 525K
20260506T18Z_MSC_RDPS_AirTemp_IsbL-0985_RLatLon0.09_PT041H.grib2 2026-05-07 02:56 513K
20260506T18Z_MSC_RDPS_AirTemp_IsbL-1000_RLatLon0.09_PT041H.grib2 2026-05-07 02:56 502K
20260506T18Z_MSC_RDPS_AirTemp_IsbL-1015_RLatLon0.09_PT041H.grib2 2026-05-07 02:56 500K
20260506T18Z_MSC_RDPS_Albedo_Sfc_RLatLon0.09_PT041H.grib2 2026-05-07 02:56 152K
20260506T18Z_MSC_RDPS_CAPE_Sfc_RLatLon0.09_PT041H.grib2 2026-05-07 02:56 1.6M
20260506T18Z_MSC_RDPS_CIN_Sfc_RLatLon0.09_PT041H.grib2 2026-05-07 02:56 1.1M
20260506T18Z_MSC_RDPS_CloudWater_EAtm_RLatLon0.09_PT041H.grib2 2026-05-07 02:56 225K
20260506T18Z_MSC_RDPS_ConvectivePrecip-Accum_Sfc_RLatLon0.09_PT041H.grib2 2026-05-07 02:56 1.0M
20260506T18Z_MSC_RDPS_DewPointDepression_AGL-2m_RLatLon0.09_PT041H.grib2 2026-05-07 02:56 405K
20260506T18Z_MSC_RDPS_DewPointDepression_IsbL-0001_RLatLon0.09_PT041H.grib2 2026-05-07 02:56 193
20260506T18Z_MSC_RDPS_DewPointDepression_IsbL-0005_RLatLon0.09_PT041H.grib2 2026-05-07 02:56 193
20260506T18Z_MSC_RDPS_DewPointDepression_IsbL-0010_RLatLon0.09_PT041H.grib2 2026-05-07 02:56 193
20260506T18Z_MSC_RDPS_DewPointDepression_IsbL-0020_RLatLon0.09_PT041H.grib2 2026-05-07 02:56 193
20260506T18Z_MSC_RDPS_DewPointDepression_IsbL-0030_RLatLon0.09_PT041H.grib2 2026-05-07 02:56 193
20260506T18Z_MSC_RDPS_DewPointDepression_IsbL-0050_RLatLon0.09_PT041H.grib2 2026-05-07 02:56 113K
20260506T18Z_MSC_RDPS_DewPointDepression_IsbL-0100_RLatLon0.09_PT041H.grib2 2026-05-07 02:56 109K
20260506T18Z_MSC_RDPS_DewPointDepression_IsbL-0150_RLatLon0.09_PT041H.grib2 2026-05-07 02:56 133K
20260506T18Z_MSC_RDPS_DewPointDepression_IsbL-0175_RLatLon0.09_PT041H.grib2 2026-05-07 02:56 167K
20260506T18Z_MSC_RDPS_DewPointDepression_IsbL-0200_RLatLon0.09_PT041H.grib2 2026-05-07 02:56 212K
20260506T18Z_MSC_RDPS_DewPointDepression_IsbL-0225_RLatLon0.09_PT041H.grib2 2026-05-07 02:56 246K
20260506T18Z_MSC_RDPS_DewPointDepression_IsbL-0250_RLatLon0.09_PT041H.grib2 2026-05-07 02:56 296K
20260506T18Z_MSC_RDPS_DewPointDepression_IsbL-0275_RLatLon0.09_PT041H.grib2 2026-05-07 02:56 305K
20260506T18Z_MSC_RDPS_DewPointDepression_IsbL-0300_RLatLon0.09_PT041H.grib2 2026-05-07 02:56 321K
20260506T18Z_MSC_RDPS_DewPointDepression_IsbL-0350_RLatLon0.09_PT041H.grib2 2026-05-07 02:56 323K
20260506T18Z_MSC_RDPS_DewPointDepression_IsbL-0400_RLatLon0.09_PT041H.grib2 2026-05-07 02:56 325K
20260506T18Z_MSC_RDPS_DewPointDepression_IsbL-0450_RLatLon0.09_PT041H.grib2 2026-05-07 02:56 330K
20260506T18Z_MSC_RDPS_DewPointDepression_IsbL-0500_RLatLon0.09_PT041H.grib2 2026-05-07 02:56 338K
20260506T18Z_MSC_RDPS_DewPointDepression_IsbL-0550_RLatLon0.09_PT041H.grib2 2026-05-07 02:56 352K
20260506T18Z_MSC_RDPS_DewPointDepression_IsbL-0600_RLatLon0.09_PT041H.grib2 2026-05-07 02:56 365K
20260506T18Z_MSC_RDPS_DewPointDepression_IsbL-0650_RLatLon0.09_PT041H.grib2 2026-05-07 02:56 372K
20260506T18Z_MSC_RDPS_DewPointDepression_IsbL-0700_RLatLon0.09_PT041H.grib2 2026-05-07 02:56 384K
20260506T18Z_MSC_RDPS_DewPointDepression_IsbL-0750_RLatLon0.09_PT041H.grib2 2026-05-07 02:56 410K
20260506T18Z_MSC_RDPS_DewPointDepression_IsbL-0800_RLatLon0.09_PT041H.grib2 2026-05-07 02:56 452K
20260506T18Z_MSC_RDPS_DewPointDepression_IsbL-0850_RLatLon0.09_PT041H.grib2 2026-05-07 02:56 487K
20260506T18Z_MSC_RDPS_DewPointDepression_IsbL-0875_RLatLon0.09_PT041H.grib2 2026-05-07 02:56 482K
20260506T18Z_MSC_RDPS_DewPointDepression_IsbL-0900_RLatLon0.09_PT041H.grib2 2026-05-07 02:56 467K
20260506T18Z_MSC_RDPS_DewPointDepression_IsbL-0925_RLatLon0.09_PT041H.grib2 2026-05-07 02:56 452K
20260506T18Z_MSC_RDPS_DewPointDepression_IsbL-0950_RLatLon0.09_PT041H.grib2 2026-05-07 02:56 443K
20260506T18Z_MSC_RDPS_DewPointDepression_IsbL-0970_RLatLon0.09_PT041H.grib2 2026-05-07 02:56 439K
20260506T18Z_MSC_RDPS_DewPointDepression_IsbL-0985_RLatLon0.09_PT041H.grib2 2026-05-07 02:56 436K
20260506T18Z_MSC_RDPS_DewPointDepression_IsbL-1000_RLatLon0.09_PT041H.grib2 2026-05-07 02:56 434K
20260506T18Z_MSC_RDPS_DewPointDepression_IsbL-1015_RLatLon0.09_PT041H.grib2 2026-05-07 02:56 423K
20260506T18Z_MSC_RDPS_DewPoint_AGL-2m_RLatLon0.09_PT041H.grib2 2026-05-07 02:56 404K
20260506T18Z_MSC_RDPS_DownwardLongwaveRadiationFlux-Accum_Sfc_RLatLon0.09_PT041H.grib2 2026-05-07 02:56 391K
20260506T18Z_MSC_RDPS_DownwardShortwaveRadiationFlux-Accum_NTAtm_RLatLon0.09_PT041H.grib2 2026-05-07 02:56 123K
20260506T18Z_MSC_RDPS_DownwardShortwaveRadiationFlux-Accum_Sfc_RLatLon0.09_PT041H.grib2 2026-05-07 02:56 538K
20260506T18Z_MSC_RDPS_FreezingRain-Accum1h_Sfc_RLatLon0.09_PT041H.grib2 2026-05-07 02:56 50K
20260506T18Z_MSC_RDPS_FreezingRain-Accum_Sfc_RLatLon0.09_PT041H.grib2 2026-05-07 02:56 169K
20260506T18Z_MSC_RDPS_GeopotentialHeight_IsbL-0001_RLatLon0.09_PT041H.grib2 2026-05-07 02:56 239K
20260506T18Z_MSC_RDPS_GeopotentialHeight_IsbL-0005_RLatLon0.09_PT041H.grib2 2026-05-07 02:56 338K
20260506T18Z_MSC_RDPS_GeopotentialHeight_IsbL-0010_RLatLon0.09_PT041H.grib2 2026-05-07 02:56 340K
20260506T18Z_MSC_RDPS_GeopotentialHeight_IsbL-0020_RLatLon0.09_PT041H.grib2 2026-05-07 02:56 307K
20260506T18Z_MSC_RDPS_GeopotentialHeight_IsbL-0030_RLatLon0.09_PT041H.grib2 2026-05-07 02:56 309K
20260506T18Z_MSC_RDPS_GeopotentialHeight_IsbL-0050_RLatLon0.09_PT041H.grib2 2026-05-07 02:56 310K
20260506T18Z_MSC_RDPS_GeopotentialHeight_IsbL-0100_RLatLon0.09_PT041H.grib2 2026-05-07 02:56 285K
20260506T18Z_MSC_RDPS_GeopotentialHeight_IsbL-0150_RLatLon0.09_PT041H.grib2 2026-05-07 02:56 226K
20260506T18Z_MSC_RDPS_GeopotentialHeight_IsbL-0175_RLatLon0.09_PT041H.grib2 2026-05-07 02:56 228K
20260506T18Z_MSC_RDPS_GeopotentialHeight_IsbL-0200_RLatLon0.09_PT041H.grib2 2026-05-07 02:56 262K
20260506T18Z_MSC_RDPS_GeopotentialHeight_IsbL-0225_RLatLon0.09_PT041H.grib2 2026-05-07 02:56 263K
20260506T18Z_MSC_RDPS_GeopotentialHeight_IsbL-0250_RLatLon0.09_PT041H.grib2 2026-05-07 02:56 264K
20260506T18Z_MSC_RDPS_GeopotentialHeight_IsbL-0275_RLatLon0.09_PT041H.grib2 2026-05-07 02:56 265K
20260506T18Z_MSC_RDPS_GeopotentialHeight_IsbL-0300_RLatLon0.09_PT041H.grib2 2026-05-07 02:56 264K
20260506T18Z_MSC_RDPS_GeopotentialHeight_IsbL-0350_RLatLon0.09_PT041H.grib2 2026-05-07 02:56 229K
20260506T18Z_MSC_RDPS_GeopotentialHeight_IsbL-0400_RLatLon0.09_PT041H.grib2 2026-05-07 02:56 226K
20260506T18Z_MSC_RDPS_GeopotentialHeight_IsbL-0450_RLatLon0.09_PT041H.grib2 2026-05-07 02:56 293K
20260506T18Z_MSC_RDPS_GeopotentialHeight_IsbL-0500_RLatLon0.09_PT041H.grib2 2026-05-07 02:56 288K
20260506T18Z_MSC_RDPS_GeopotentialHeight_IsbL-0550_RLatLon0.09_PT041H.grib2 2026-05-07 02:56 284K
20260506T18Z_MSC_RDPS_GeopotentialHeight_IsbL-0600_RLatLon0.09_PT041H.grib2 2026-05-07 02:56 282K
20260506T18Z_MSC_RDPS_GeopotentialHeight_IsbL-0650_RLatLon0.09_PT041H.grib2 2026-05-07 02:56 251K
20260506T18Z_MSC_RDPS_GeopotentialHeight_IsbL-0700_RLatLon0.09_PT041H.grib2 2026-05-07 02:56 332K
20260506T18Z_MSC_RDPS_GeopotentialHeight_IsbL-0750_RLatLon0.09_PT041H.grib2 2026-05-07 02:56 334K
20260506T18Z_MSC_RDPS_GeopotentialHeight_IsbL-0800_RLatLon0.09_PT041H.grib2 2026-05-07 02:56 343K
20260506T18Z_MSC_RDPS_GeopotentialHeight_IsbL-0850_RLatLon0.09_PT041H.grib2 2026-05-07 02:56 388K
20260506T18Z_MSC_RDPS_GeopotentialHeight_IsbL-0875_RLatLon0.09_PT041H.grib2 2026-05-07 02:56 390K
20260506T18Z_MSC_RDPS_GeopotentialHeight_IsbL-0900_RLatLon0.09_PT041H.grib2 2026-05-07 02:56 392K
20260506T18Z_MSC_RDPS_GeopotentialHeight_IsbL-0925_RLatLon0.09_PT041H.grib2 2026-05-07 02:56 396K
20260506T18Z_MSC_RDPS_GeopotentialHeight_IsbL-0950_RLatLon0.09_PT041H.grib2 2026-05-07 02:56 399K
20260506T18Z_MSC_RDPS_GeopotentialHeight_IsbL-0970_RLatLon0.09_PT041H.grib2 2026-05-07 02:56 404K
20260506T18Z_MSC_RDPS_GeopotentialHeight_IsbL-0985_RLatLon0.09_PT041H.grib2 2026-05-07 02:56 413K
20260506T18Z_MSC_RDPS_GeopotentialHeight_IsbL-1000_RLatLon0.09_PT041H.grib2 2026-05-07 02:56 426K
20260506T18Z_MSC_RDPS_GeopotentialHeight_IsbL-1015_RLatLon0.09_PT041H.grib2 2026-05-07 02:56 444K
20260506T18Z_MSC_RDPS_Humidex_Sfc_RLatLon0.09_PT041H.grib2 2026-05-07 02:56 2.4M
20260506T18Z_MSC_RDPS_IcePellets-Accum1h_Sfc_RLatLon0.09_PT041H.grib2 2026-05-07 02:56 8.0K
20260506T18Z_MSC_RDPS_IcePellets-Accum_Sfc_RLatLon0.09_PT041H.grib2 2026-05-07 02:56 25K
20260506T18Z_MSC_RDPS_KIndex_Sfc_RLatLon0.09_PT041H.grib2 2026-05-07 02:56 2.5M
20260506T18Z_MSC_RDPS_LatentHeatNetFlux_Sfc_RLatLon0.09_PT041H.grib2 2026-05-07 02:56 323K
20260506T18Z_MSC_RDPS_LiftedIndex-MU-VT_IsbL-0500_RLatLon0.09_PT041H.grib2 2026-05-07 02:56 2.4M
20260506T18Z_MSC_RDPS_NetLongwaveRadiationFlux-Accum_Sfc_RLatLon0.09_PT041H.grib2 2026-05-07 02:56 525K
20260506T18Z_MSC_RDPS_NetShortwaveRadiationFlux-Accum_Sfc_RLatLon0.09_PT041H.grib2 2026-05-07 02:56 535K
20260506T18Z_MSC_RDPS_PlanetaryBoundaryLayerHeight_Sfc_RLatLon0.09_PT041H.grib2 2026-05-07 02:56 1.1M
20260506T18Z_MSC_RDPS_Precip-Accum1h_Sfc_RLatLon0.09_PT041H.grib2 2026-05-07 02:56 1.3M
20260506T18Z_MSC_RDPS_Precip-Accum_Sfc_RLatLon0.09_PT041H.grib2 2026-05-07 02:56 2.0M
20260506T18Z_MSC_RDPS_PrecipRate_Sfc_RLatLon0.09_PT041H.grib2 2026-05-07 02:56 167K
20260506T18Z_MSC_RDPS_PrecipType-Instant_Sfc_RLatLon0.09_PT041H.grib2 2026-05-07 02:56 591K
20260506T18Z_MSC_RDPS_Pressure-Trend3h_Sfc_RLatLon0.09_PT041H.grib2 2026-05-07 02:56 1.2M
20260506T18Z_MSC_RDPS_Pressure_MSL_RLatLon0.09_PT041H.grib2 2026-05-07 02:56 322K
20260506T18Z_MSC_RDPS_Pressure_PVU-1.5_RLatLon0.09_PT041H.grib2 2026-05-07 02:56 2.5M
20260506T18Z_MSC_RDPS_Pressure_PVU-1_RLatLon0.09_PT041H.grib2 2026-05-07 02:56 2.4M
20260506T18Z_MSC_RDPS_Pressure_PVU-2_RLatLon0.09_PT041H.grib2 2026-05-07 02:56 2.4M
20260506T18Z_MSC_RDPS_Pressure_Sfc_RLatLon0.09_PT041H.grib2 2026-05-07 02:56 499K
20260506T18Z_MSC_RDPS_RadiativeTemp_Sfc_RLatLon0.09_PT041H.grib2 2026-05-07 02:56 393K
20260506T18Z_MSC_RDPS_Rain-Accum1h_Sfc_RLatLon0.09_PT041H.grib2 2026-05-07 02:56 576K
20260506T18Z_MSC_RDPS_Rain-Accum_Sfc_RLatLon0.09_PT041H.grib2 2026-05-07 02:56 1.6M
20260506T18Z_MSC_RDPS_RelativeHumidity_AGL-2m_RLatLon0.09_PT041H.grib2 2026-05-07 02:56 1.0M
20260506T18Z_MSC_RDPS_RelativeHumidity_IsbL-0010_RLatLon0.09_PT041H.grib2 2026-05-07 02:56 710K
20260506T18Z_MSC_RDPS_RelativeHumidity_IsbL-0020_RLatLon0.09_PT041H.grib2 2026-05-07 02:56 653K
20260506T18Z_MSC_RDPS_RelativeHumidity_IsbL-0030_RLatLon0.09_PT041H.grib2 2026-05-07 02:56 640K
20260506T18Z_MSC_RDPS_RelativeHumidity_IsbL-0050_RLatLon0.09_PT041H.grib2 2026-05-07 02:56 360K
20260506T18Z_MSC_RDPS_RelativeHumidity_IsbL-0100_RLatLon0.09_PT041H.grib2 2026-05-07 02:56 273K
20260506T18Z_MSC_RDPS_RelativeHumidity_IsbL-0150_RLatLon0.09_PT041H.grib2 2026-05-07 02:56 399K
20260506T18Z_MSC_RDPS_RelativeHumidity_IsbL-0175_RLatLon0.09_PT041H.grib2 2026-05-07 02:56 453K
20260506T18Z_MSC_RDPS_RelativeHumidity_IsbL-0200_RLatLon0.09_PT041H.grib2 2026-05-07 02:56 529K
20260506T18Z_MSC_RDPS_RelativeHumidity_IsbL-0225_RLatLon0.09_PT041H.grib2 2026-05-07 02:56 597K
20260506T18Z_MSC_RDPS_RelativeHumidity_IsbL-0250_RLatLon0.09_PT041H.grib2 2026-05-07 02:56 665K
20260506T18Z_MSC_RDPS_RelativeHumidity_IsbL-0275_RLatLon0.09_PT041H.grib2 2026-05-07 02:56 692K
20260506T18Z_MSC_RDPS_RelativeHumidity_IsbL-0300_RLatLon0.09_PT041H.grib2 2026-05-07 02:56 735K
20260506T18Z_MSC_RDPS_RelativeHumidity_IsbL-0350_RLatLon0.09_PT041H.grib2 2026-05-07 02:56 753K
20260506T18Z_MSC_RDPS_RelativeHumidity_IsbL-0400_RLatLon0.09_PT041H.grib2 2026-05-07 02:56 767K
20260506T18Z_MSC_RDPS_RelativeHumidity_IsbL-0450_RLatLon0.09_PT041H.grib2 2026-05-07 02:56 777K
20260506T18Z_MSC_RDPS_RelativeHumidity_IsbL-0500_RLatLon0.09_PT041H.grib2 2026-05-07 02:56 787K
20260506T18Z_MSC_RDPS_RelativeHumidity_IsbL-0550_RLatLon0.09_PT041H.grib2 2026-05-07 02:56 809K
20260506T18Z_MSC_RDPS_RelativeHumidity_IsbL-0600_RLatLon0.09_PT041H.grib2 2026-05-07 02:56 831K
20260506T18Z_MSC_RDPS_RelativeHumidity_IsbL-0650_RLatLon0.09_PT041H.grib2 2026-05-07 02:56 846K
20260506T18Z_MSC_RDPS_RelativeHumidity_IsbL-0700_RLatLon0.09_PT041H.grib2 2026-05-07 02:56 879K
20260506T18Z_MSC_RDPS_RelativeHumidity_IsbL-0750_RLatLon0.09_PT041H.grib2 2026-05-07 02:56 926K
20260506T18Z_MSC_RDPS_RelativeHumidity_IsbL-0800_RLatLon0.09_PT041H.grib2 2026-05-07 02:56 1.0M
20260506T18Z_MSC_RDPS_RelativeHumidity_IsbL-0850_RLatLon0.09_PT041H.grib2 2026-05-07 02:56 1.1M
20260506T18Z_MSC_RDPS_RelativeHumidity_IsbL-0875_RLatLon0.09_PT041H.grib2 2026-05-07 02:56 1.1M
20260506T18Z_MSC_RDPS_RelativeHumidity_IsbL-0900_RLatLon0.09_PT041H.grib2 2026-05-07 02:56 1.1M
20260506T18Z_MSC_RDPS_RelativeHumidity_IsbL-0925_RLatLon0.09_PT041H.grib2 2026-05-07 02:56 1.1M
20260506T18Z_MSC_RDPS_RelativeHumidity_IsbL-0950_RLatLon0.09_PT041H.grib2 2026-05-07 02:56 1.1M
20260506T18Z_MSC_RDPS_RelativeHumidity_IsbL-0970_RLatLon0.09_PT041H.grib2 2026-05-07 02:56 1.1M
20260506T18Z_MSC_RDPS_RelativeHumidity_IsbL-0985_RLatLon0.09_PT041H.grib2 2026-05-07 02:56 1.0M
20260506T18Z_MSC_RDPS_RelativeHumidity_IsbL-1000_RLatLon0.09_PT041H.grib2 2026-05-07 02:56 1.0M
20260506T18Z_MSC_RDPS_RelativeHumidity_IsbL-1015_RLatLon0.09_PT041H.grib2 2026-05-07 02:56 1.0M
20260506T18Z_MSC_RDPS_Runoff-Accum_Sfc_RLatLon0.09_PT041H.grib2 2026-05-07 02:56 71K
20260506T18Z_MSC_RDPS_SWEATIndex_Sfc_RLatLon0.09_PT041H.grib2 2026-05-07 02:56 2.4M
20260506T18Z_MSC_RDPS_SeeingIndex_EAtm_RLatLon0.09_PT041H.grib2 2026-05-07 02:56 1.0M
20260506T18Z_MSC_RDPS_SensibleHeatNetFlux_Sfc_RLatLon0.09_PT041H.grib2 2026-05-07 02:56 217K
20260506T18Z_MSC_RDPS_ShowalterIndex_IsbL-0500_RLatLon0.09_PT041H.grib2 2026-05-07 02:56 2.6M
20260506T18Z_MSC_RDPS_SkyTransparencyIndex_EAtm_RLatLon0.09_PT041H.grib2 2026-05-07 02:56 728K
20260506T18Z_MSC_RDPS_Snow-Accum1h_Sfc_RLatLon0.09_PT041H.grib2 2026-05-07 02:56 502K
20260506T18Z_MSC_RDPS_Snow-Accum_Sfc_RLatLon0.09_PT041H.grib2 2026-05-07 02:56 714K
20260506T18Z_MSC_RDPS_SnowDensity_Sfc_RLatLon0.09_PT041H.grib2 2026-05-07 02:56 174K
20260506T18Z_MSC_RDPS_SnowDepth_Sfc_RLatLon0.09_PT041H.grib2 2026-05-07 02:56 635K
20260506T18Z_MSC_RDPS_SoilTemp_DBS-0to10cm_RLatLon0.09_PT041H.grib2 2026-05-07 02:56 234K
20260506T18Z_MSC_RDPS_SoilTemp_Sfc_RLatLon0.09_PT041H.grib2 2026-05-07 02:56 285K
20260506T18Z_MSC_RDPS_SoilVolumetricIceContent_Sfc_RLatLon0.09_PT041H.grib2 2026-05-07 02:56 147K
20260506T18Z_MSC_RDPS_SoilVolumetricWaterContent_DBS-0to10cm_RLatLon0.09_PT041H.grib2 2026-05-07 02:56 286K
20260506T18Z_MSC_RDPS_SoilVolumetricWaterContent_DBS-0to1cm_RLatLon0.09_PT041H.grib2 2026-05-07 02:56 341K
20260506T18Z_MSC_RDPS_SpecificHumidity_AGL-120m_RLatLon0.09_PT041H.grib2 2026-05-07 02:56 507K
20260506T18Z_MSC_RDPS_SpecificHumidity_AGL-2m_RLatLon0.09_PT041H.grib2 2026-05-07 02:56 677K
20260506T18Z_MSC_RDPS_SpecificHumidity_AGL-40m_RLatLon0.09_PT041H.grib2 2026-05-07 02:56 512K
20260506T18Z_MSC_RDPS_SpecificHumidity_AGL-80m_RLatLon0.09_PT041H.grib2 2026-05-07 02:56 508K
20260506T18Z_MSC_RDPS_SpecificHumidity_IsbL-0001_RLatLon0.09_PT041H.grib2 2026-05-07 02:56 368K
20260506T18Z_MSC_RDPS_SpecificHumidity_IsbL-0005_RLatLon0.09_PT041H.grib2 2026-05-07 02:56 376K
20260506T18Z_MSC_RDPS_SpecificHumidity_IsbL-0010_RLatLon0.09_PT041H.grib2 2026-05-07 02:56 409K
20260506T18Z_MSC_RDPS_SpecificHumidity_IsbL-0020_RLatLon0.09_PT041H.grib2 2026-05-07 02:56 385K
20260506T18Z_MSC_RDPS_SpecificHumidity_IsbL-0030_RLatLon0.09_PT041H.grib2 2026-05-07 02:56 372K
20260506T18Z_MSC_RDPS_SpecificHumidity_IsbL-0050_RLatLon0.09_PT041H.grib2 2026-05-07 02:56 480K
20260506T18Z_MSC_RDPS_SpecificHumidity_IsbL-0100_RLatLon0.09_PT041H.grib2 2026-05-07 02:56 414K
20260506T18Z_MSC_RDPS_SpecificHumidity_IsbL-0150_RLatLon0.09_PT041H.grib2 2026-05-07 02:56 441K
20260506T18Z_MSC_RDPS_SpecificHumidity_IsbL-0175_RLatLon0.09_PT041H.grib2 2026-05-07 02:56 424K
20260506T18Z_MSC_RDPS_SpecificHumidity_IsbL-0200_RLatLon0.09_PT041H.grib2 2026-05-07 02:56 458K
20260506T18Z_MSC_RDPS_SpecificHumidity_IsbL-0225_RLatLon0.09_PT041H.grib2 2026-05-07 02:56 459K
20260506T18Z_MSC_RDPS_SpecificHumidity_IsbL-0250_RLatLon0.09_PT041H.grib2 2026-05-07 02:56 506K
20260506T18Z_MSC_RDPS_SpecificHumidity_IsbL-0275_RLatLon0.09_PT041H.grib2 2026-05-07 02:56 466K
20260506T18Z_MSC_RDPS_SpecificHumidity_IsbL-0300_RLatLon0.09_PT041H.grib2 2026-05-07 02:56 439K
20260506T18Z_MSC_RDPS_SpecificHumidity_IsbL-0350_RLatLon0.09_PT041H.grib2 2026-05-07 02:56 431K
20260506T18Z_MSC_RDPS_SpecificHumidity_IsbL-0400_RLatLon0.09_PT041H.grib2 2026-05-07 02:56 508K
20260506T18Z_MSC_RDPS_SpecificHumidity_IsbL-0450_RLatLon0.09_PT041H.grib2 2026-05-07 02:56 447K
20260506T18Z_MSC_RDPS_SpecificHumidity_IsbL-0500_RLatLon0.09_PT041H.grib2 2026-05-07 02:56 499K
20260506T18Z_MSC_RDPS_SpecificHumidity_IsbL-0550_RLatLon0.09_PT041H.grib2 2026-05-07 02:56 573K
20260506T18Z_MSC_RDPS_SpecificHumidity_IsbL-0600_RLatLon0.09_PT041H.grib2 2026-05-07 02:56 628K
20260506T18Z_MSC_RDPS_SpecificHumidity_IsbL-0650_RLatLon0.09_PT041H.grib2 2026-05-07 02:56 548K
20260506T18Z_MSC_RDPS_SpecificHumidity_IsbL-0700_RLatLon0.09_PT041H.grib2 2026-05-07 02:56 594K
20260506T18Z_MSC_RDPS_SpecificHumidity_IsbL-0750_RLatLon0.09_PT041H.grib2 2026-05-07 02:56 654K
20260506T18Z_MSC_RDPS_SpecificHumidity_IsbL-0800_RLatLon0.09_PT041H.grib2 2026-05-07 02:56 746K
20260506T18Z_MSC_RDPS_SpecificHumidity_IsbL-0850_RLatLon0.09_PT041H.grib2 2026-05-07 02:56 826K
20260506T18Z_MSC_RDPS_SpecificHumidity_IsbL-0875_RLatLon0.09_PT041H.grib2 2026-05-07 02:56 847K
20260506T18Z_MSC_RDPS_SpecificHumidity_IsbL-0900_RLatLon0.09_PT041H.grib2 2026-05-07 02:56 856K
20260506T18Z_MSC_RDPS_SpecificHumidity_IsbL-0925_RLatLon0.09_PT041H.grib2 2026-05-07 02:56 856K
20260506T18Z_MSC_RDPS_SpecificHumidity_IsbL-0950_RLatLon0.09_PT041H.grib2 2026-05-07 02:56 854K
20260506T18Z_MSC_RDPS_SpecificHumidity_IsbL-0970_RLatLon0.09_PT041H.grib2 2026-05-07 02:56 707K
20260506T18Z_MSC_RDPS_SpecificHumidity_IsbL-0985_RLatLon0.09_PT041H.grib2 2026-05-07 02:56 700K
20260506T18Z_MSC_RDPS_SpecificHumidity_IsbL-1000_RLatLon0.09_PT041H.grib2 2026-05-07 02:56 697K
20260506T18Z_MSC_RDPS_SpecificHumidity_IsbL-1015_RLatLon0.09_PT041H.grib2 2026-05-07 02:56 686K
20260506T18Z_MSC_RDPS_SpecificHumidity_Sfc_RLatLon0.09_PT041H.grib2 2026-05-07 02:56 304K
20260506T18Z_MSC_RDPS_StormRelativeHelicity_EtaL-10000_RLatLon0.09_PT041H.grib2 2026-05-07 02:56 1.1M
20260506T18Z_MSC_RDPS_StormSeverityIndex_EtaL-10000_RLatLon0.09_PT041H.grib2 2026-05-07 02:56 1.2M
20260506T18Z_MSC_RDPS_Thickness_IsbL-0850to0700_RLatLon0.09_PT041H.grib2 2026-05-07 02:56 245K
20260506T18Z_MSC_RDPS_Thickness_IsbL-1000to0500_RLatLon0.09_PT041H.grib2 2026-05-07 02:56 192K
20260506T18Z_MSC_RDPS_Thickness_IsbL-1000to0850_RLatLon0.09_PT041H.grib2 2026-05-07 02:56 260K
20260506T18Z_MSC_RDPS_TotalCloudCover_Sfc_RLatLon0.09_PT041H.grib2 2026-05-07 02:56 680K
20260506T18Z_MSC_RDPS_TotalTotalsIndex_Sfc_RLatLon0.09_PT041H.grib2 2026-05-07 02:56 2.4M
20260506T18Z_MSC_RDPS_UVIndex-ClearSky_Sfc_RLatLon0.09_PT041H.grib2 2026-05-07 02:56 123K
20260506T18Z_MSC_RDPS_UVIndex_Sfc_RLatLon0.09_PT041H.grib2 2026-05-07 02:56 289K
20260506T18Z_MSC_RDPS_UpwardLongwaveRadiationFlux_NTAtm_RLatLon0.09_PT041H.grib2 2026-05-07 02:56 485K
20260506T18Z_MSC_RDPS_UpwardShortwaveRadiationFlux_NTAtm_RLatLon0.09_PT041H.grib2 2026-05-07 02:56 267K
20260506T18Z_MSC_RDPS_VerticalVelocity_IsbL-0250_RLatLon0.09_PT041H.grib2 2026-05-07 02:56 571K
20260506T18Z_MSC_RDPS_VerticalVelocity_IsbL-0500_RLatLon0.09_PT041H.grib2 2026-05-07 02:56 664K
20260506T18Z_MSC_RDPS_VerticalVelocity_IsbL-0700_RLatLon0.09_PT041H.grib2 2026-05-07 02:56 586K
20260506T18Z_MSC_RDPS_VerticalVelocity_IsbL-0850_RLatLon0.09_PT041H.grib2 2026-05-07 02:56 837K
20260506T18Z_MSC_RDPS_VerticalWindShear_EtaL-6500_RLatLon0.09_PT041H.grib2 2026-05-07 02:56 1.2M
20260506T18Z_MSC_RDPS_WindChill_Sfc_RLatLon0.09_PT041H.grib2 2026-05-07 02:56 1.2M
20260506T18Z_MSC_RDPS_WindDir_AGL-10m_RLatLon0.09_PT041H.grib2 2026-05-07 02:56 1.0M
20260506T18Z_MSC_RDPS_WindDir_AGL-120m_RLatLon0.09_PT041H.grib2 2026-05-07 02:56 623K
20260506T18Z_MSC_RDPS_WindDir_AGL-40m_RLatLon0.09_PT041H.grib2 2026-05-07 02:56 660K
20260506T18Z_MSC_RDPS_WindDir_AGL-80m_RLatLon0.09_PT041H.grib2 2026-05-07 02:56 637K
20260506T18Z_MSC_RDPS_WindDir_IsbL-0001_RLatLon0.09_PT041H.grib2 2026-05-07 02:56 309K
20260506T18Z_MSC_RDPS_WindDir_IsbL-0005_RLatLon0.09_PT041H.grib2 2026-05-07 02:56 392K
20260506T18Z_MSC_RDPS_WindDir_IsbL-0010_RLatLon0.09_PT041H.grib2 2026-05-07 02:56 383K
20260506T18Z_MSC_RDPS_WindDir_IsbL-0020_RLatLon0.09_PT041H.grib2 2026-05-07 02:56 401K
20260506T18Z_MSC_RDPS_WindDir_IsbL-0030_RLatLon0.09_PT041H.grib2 2026-05-07 02:56 401K
20260506T18Z_MSC_RDPS_WindDir_IsbL-0050_RLatLon0.09_PT041H.grib2 2026-05-07 02:56 450K
20260506T18Z_MSC_RDPS_WindDir_IsbL-0100_RLatLon0.09_PT041H.grib2 2026-05-07 02:56 422K
20260506T18Z_MSC_RDPS_WindDir_IsbL-0150_RLatLon0.09_PT041H.grib2 2026-05-07 02:56 413K
20260506T18Z_MSC_RDPS_WindDir_IsbL-0175_RLatLon0.09_PT041H.grib2 2026-05-07 02:56 440K
20260506T18Z_MSC_RDPS_WindDir_IsbL-0200_RLatLon0.09_PT041H.grib2 2026-05-07 02:56 456K
20260506T18Z_MSC_RDPS_WindDir_IsbL-0225_RLatLon0.09_PT041H.grib2 2026-05-07 02:56 457K
20260506T18Z_MSC_RDPS_WindDir_IsbL-0250_RLatLon0.09_PT041H.grib2 2026-05-07 02:56 455K
20260506T18Z_MSC_RDPS_WindDir_IsbL-0275_RLatLon0.09_PT041H.grib2 2026-05-07 02:56 470K
20260506T18Z_MSC_RDPS_WindDir_IsbL-0300_RLatLon0.09_PT041H.grib2 2026-05-07 02:56 468K
20260506T18Z_MSC_RDPS_WindDir_IsbL-0350_RLatLon0.09_PT041H.grib2 2026-05-07 02:56 497K
20260506T18Z_MSC_RDPS_WindDir_IsbL-0400_RLatLon0.09_PT041H.grib2 2026-05-07 02:56 514K
20260506T18Z_MSC_RDPS_WindDir_IsbL-0450_RLatLon0.09_PT041H.grib2 2026-05-07 02:56 540K
20260506T18Z_MSC_RDPS_WindDir_IsbL-0500_RLatLon0.09_PT041H.grib2 2026-05-07 02:56 562K
20260506T18Z_MSC_RDPS_WindDir_IsbL-0550_RLatLon0.09_PT041H.grib2 2026-05-07 02:56 572K
20260506T18Z_MSC_RDPS_WindDir_IsbL-0600_RLatLon0.09_PT041H.grib2 2026-05-07 02:56 590K
20260506T18Z_MSC_RDPS_WindDir_IsbL-0650_RLatLon0.09_PT041H.grib2 2026-05-07 02:56 627K
20260506T18Z_MSC_RDPS_WindDir_IsbL-0700_RLatLon0.09_PT041H.grib2 2026-05-07 02:56 671K
20260506T18Z_MSC_RDPS_WindDir_IsbL-0750_RLatLon0.09_PT041H.grib2 2026-05-07 02:56 725K
20260506T18Z_MSC_RDPS_WindDir_IsbL-0800_RLatLon0.09_PT041H.grib2 2026-05-07 02:56 797K
20260506T18Z_MSC_RDPS_WindDir_IsbL-0850_RLatLon0.09_PT041H.grib2 2026-05-07 02:56 872K
20260506T18Z_MSC_RDPS_WindDir_IsbL-0875_RLatLon0.09_PT041H.grib2 2026-05-07 02:56 895K
20260506T18Z_MSC_RDPS_WindDir_IsbL-0900_RLatLon0.09_PT041H.grib2 2026-05-07 02:56 912K
20260506T18Z_MSC_RDPS_WindDir_IsbL-0925_RLatLon0.09_PT041H.grib2 2026-05-07 02:56 925K
20260506T18Z_MSC_RDPS_WindDir_IsbL-0950_RLatLon0.09_PT041H.grib2 2026-05-07 02:56 931K
20260506T18Z_MSC_RDPS_WindDir_IsbL-0970_RLatLon0.09_PT041H.grib2 2026-05-07 02:56 941K
20260506T18Z_MSC_RDPS_WindDir_IsbL-0985_RLatLon0.09_PT041H.grib2 2026-05-07 02:56 951K
20260506T18Z_MSC_RDPS_WindDir_IsbL-1000_RLatLon0.09_PT041H.grib2 2026-05-07 02:56 970K
20260506T18Z_MSC_RDPS_WindDir_IsbL-1015_RLatLon0.09_PT041H.grib2 2026-05-07 02:56 1.0M
20260506T18Z_MSC_RDPS_WindGust-Max_AGL-10m_RLatLon0.09_PT041H.grib2 2026-05-07 02:56 1.0M
20260506T18Z_MSC_RDPS_WindGust-Min_AGL-10m_RLatLon0.09_PT041H.grib2 2026-05-07 02:56 968K
20260506T18Z_MSC_RDPS_WindGust_AGL-10m_RLatLon0.09_PT041H.grib2 2026-05-07 02:56 1.0M
20260506T18Z_MSC_RDPS_WindSpeed_AGL-10m_RLatLon0.09_PT041H.grib2 2026-05-07 02:56 848K
20260506T18Z_MSC_RDPS_WindSpeed_AGL-120m_RLatLon0.09_PT041H.grib2 2026-05-07 02:56 546K
20260506T18Z_MSC_RDPS_WindSpeed_AGL-40m_RLatLon0.09_PT041H.grib2 2026-05-07 02:56 678K
20260506T18Z_MSC_RDPS_WindSpeed_AGL-80m_RLatLon0.09_PT041H.grib2 2026-05-07 02:56 546K
20260506T18Z_MSC_RDPS_WindSpeed_IsbL-0001_RLatLon0.09_PT041H.grib2 2026-05-07 02:56 330K
20260506T18Z_MSC_RDPS_WindSpeed_IsbL-0005_RLatLon0.09_PT041H.grib2 2026-05-07 02:56 296K
20260506T18Z_MSC_RDPS_WindSpeed_IsbL-0010_RLatLon0.09_PT041H.grib2 2026-05-07 02:56 303K
20260506T18Z_MSC_RDPS_WindSpeed_IsbL-0020_RLatLon0.09_PT041H.grib2 2026-05-07 02:56 322K
20260506T18Z_MSC_RDPS_WindSpeed_IsbL-0030_RLatLon0.09_PT041H.grib2 2026-05-07 02:56 319K
20260506T18Z_MSC_RDPS_WindSpeed_IsbL-0050_RLatLon0.09_PT041H.grib2 2026-05-07 02:56 454K
20260506T18Z_MSC_RDPS_WindSpeed_IsbL-0100_RLatLon0.09_PT041H.grib2 2026-05-07 02:56 433K
20260506T18Z_MSC_RDPS_WindSpeed_IsbL-0150_RLatLon0.09_PT041H.grib2 2026-05-07 02:56 370K
20260506T18Z_MSC_RDPS_WindSpeed_IsbL-0175_RLatLon0.09_PT041H.grib2 2026-05-07 02:56 417K
20260506T18Z_MSC_RDPS_WindSpeed_IsbL-0200_RLatLon0.09_PT041H.grib2 2026-05-07 02:56 435K
20260506T18Z_MSC_RDPS_WindSpeed_IsbL-0225_RLatLon0.09_PT041H.grib2 2026-05-07 02:56 438K
20260506T18Z_MSC_RDPS_WindSpeed_IsbL-0250_RLatLon0.09_PT041H.grib2 2026-05-07 02:56 439K
20260506T18Z_MSC_RDPS_WindSpeed_IsbL-0275_RLatLon0.09_PT041H.grib2 2026-05-07 02:56 454K
20260506T18Z_MSC_RDPS_WindSpeed_IsbL-0300_RLatLon0.09_PT041H.grib2 2026-05-07 02:56 452K
20260506T18Z_MSC_RDPS_WindSpeed_IsbL-0350_RLatLon0.09_PT041H.grib2 2026-05-07 02:56 463K
20260506T18Z_MSC_RDPS_WindSpeed_IsbL-0400_RLatLon0.09_PT041H.grib2 2026-05-07 02:56 451K
20260506T18Z_MSC_RDPS_WindSpeed_IsbL-0450_RLatLon0.09_PT041H.grib2 2026-05-07 02:56 571K
20260506T18Z_MSC_RDPS_WindSpeed_IsbL-0500_RLatLon0.09_PT041H.grib2 2026-05-07 02:56 572K
20260506T18Z_MSC_RDPS_WindSpeed_IsbL-0550_RLatLon0.09_PT041H.grib2 2026-05-07 02:56 574K
20260506T18Z_MSC_RDPS_WindSpeed_IsbL-0600_RLatLon0.09_PT041H.grib2 2026-05-07 02:56 626K
20260506T18Z_MSC_RDPS_WindSpeed_IsbL-0650_RLatLon0.09_PT041H.grib2 2026-05-07 02:56 646K
20260506T18Z_MSC_RDPS_WindSpeed_IsbL-0700_RLatLon0.09_PT041H.grib2 2026-05-07 02:56 674K
20260506T18Z_MSC_RDPS_WindSpeed_IsbL-0750_RLatLon0.09_PT041H.grib2 2026-05-07 02:56 707K
20260506T18Z_MSC_RDPS_WindSpeed_IsbL-0800_RLatLon0.09_PT041H.grib2 2026-05-07 02:56 760K
20260506T18Z_MSC_RDPS_WindSpeed_IsbL-0850_RLatLon0.09_PT041H.grib2 2026-05-07 02:56 823K
20260506T18Z_MSC_RDPS_WindSpeed_IsbL-0875_RLatLon0.09_PT041H.grib2 2026-05-07 02:56 842K
20260506T18Z_MSC_RDPS_WindSpeed_IsbL-0900_RLatLon0.09_PT041H.grib2 2026-05-07 02:56 857K
20260506T18Z_MSC_RDPS_WindSpeed_IsbL-0925_RLatLon0.09_PT041H.grib2 2026-05-07 02:56 869K
20260506T18Z_MSC_RDPS_WindSpeed_IsbL-0950_RLatLon0.09_PT041H.grib2 2026-05-07 02:56 872K
20260506T18Z_MSC_RDPS_WindSpeed_IsbL-0970_RLatLon0.09_PT041H.grib2 2026-05-07 02:56 865K
20260506T18Z_MSC_RDPS_WindSpeed_IsbL-0985_RLatLon0.09_PT041H.grib2 2026-05-07 02:56 858K
20260506T18Z_MSC_RDPS_WindSpeed_IsbL-1000_RLatLon0.09_PT041H.grib2 2026-05-07 02:56 855K
20260506T18Z_MSC_RDPS_WindSpeed_IsbL-1015_RLatLon0.09_PT041H.grib2 2026-05-07 02:56 847K
20260506T18Z_MSC_RDPS_WindU_AGL-10m_RLatLon0.09_PT041H.grib2 2026-05-07 02:56 437K
20260506T18Z_MSC_RDPS_WindU_AGL-120m_RLatLon0.09_PT041H.grib2 2026-05-07 02:56 425K
20260506T18Z_MSC_RDPS_WindU_AGL-40m_RLatLon0.09_PT041H.grib2 2026-05-07 02:56 546K
20260506T18Z_MSC_RDPS_WindU_AGL-80m_RLatLon0.09_PT041H.grib2 2026-05-07 02:56 544K
20260506T18Z_MSC_RDPS_WindU_IsbL-0001_RLatLon0.09_PT041H.grib2 2026-05-07 02:56 292K
20260506T18Z_MSC_RDPS_WindU_IsbL-0005_RLatLon0.09_PT041H.grib2 2026-05-07 02:56 329K
20260506T18Z_MSC_RDPS_WindU_IsbL-0010_RLatLon0.09_PT041H.grib2 2026-05-07 02:56 299K
20260506T18Z_MSC_RDPS_WindU_IsbL-0020_RLatLon0.09_PT041H.grib2 2026-05-07 02:56 355K
20260506T18Z_MSC_RDPS_WindU_IsbL-0030_RLatLon0.09_PT041H.grib2 2026-05-07 02:56 352K
20260506T18Z_MSC_RDPS_WindU_IsbL-0050_RLatLon0.09_PT041H.grib2 2026-05-07 02:56 378K
20260506T18Z_MSC_RDPS_WindU_IsbL-0100_RLatLon0.09_PT041H.grib2 2026-05-07 02:56 424K
20260506T18Z_MSC_RDPS_WindU_IsbL-0150_RLatLon0.09_PT041H.grib2 2026-05-07 02:56 388K
20260506T18Z_MSC_RDPS_WindU_IsbL-0175_RLatLon0.09_PT041H.grib2 2026-05-07 02:56 410K
20260506T18Z_MSC_RDPS_WindU_IsbL-0200_RLatLon0.09_PT041H.grib2 2026-05-07 02:56 331K
20260506T18Z_MSC_RDPS_WindU_IsbL-0225_RLatLon0.09_PT041H.grib2 2026-05-07 02:56 332K
20260506T18Z_MSC_RDPS_WindU_IsbL-0250_RLatLon0.09_PT041H.grib2 2026-05-07 02:56 332K
20260506T18Z_MSC_RDPS_WindU_IsbL-0275_RLatLon0.09_PT041H.grib2 2026-05-07 02:56 344K
20260506T18Z_MSC_RDPS_WindU_IsbL-0300_RLatLon0.09_PT041H.grib2 2026-05-07 02:56 341K
20260506T18Z_MSC_RDPS_WindU_IsbL-0350_RLatLon0.09_PT041H.grib2 2026-05-07 02:56 448K
20260506T18Z_MSC_RDPS_WindU_IsbL-0400_RLatLon0.09_PT041H.grib2 2026-05-07 02:56 454K
20260506T18Z_MSC_RDPS_WindU_IsbL-0450_RLatLon0.09_PT041H.grib2 2026-05-07 02:56 458K
20260506T18Z_MSC_RDPS_WindU_IsbL-0500_RLatLon0.09_PT041H.grib2 2026-05-07 02:56 461K
20260506T18Z_MSC_RDPS_WindU_IsbL-0550_RLatLon0.09_PT041H.grib2 2026-05-07 02:56 464K
20260506T18Z_MSC_RDPS_WindU_IsbL-0600_RLatLon0.09_PT041H.grib2 2026-05-07 02:56 455K
20260506T18Z_MSC_RDPS_WindU_IsbL-0650_RLatLon0.09_PT041H.grib2 2026-05-07 02:56 474K
20260506T18Z_MSC_RDPS_WindU_IsbL-0700_RLatLon0.09_PT041H.grib2 2026-05-07 02:56 498K
20260506T18Z_MSC_RDPS_WindU_IsbL-0750_RLatLon0.09_PT041H.grib2 2026-05-07 02:56 654K
20260506T18Z_MSC_RDPS_WindU_IsbL-0800_RLatLon0.09_PT041H.grib2 2026-05-07 02:56 574K
20260506T18Z_MSC_RDPS_WindU_IsbL-0850_RLatLon0.09_PT041H.grib2 2026-05-07 02:56 631K
20260506T18Z_MSC_RDPS_WindU_IsbL-0875_RLatLon0.09_PT041H.grib2 2026-05-07 02:56 647K
20260506T18Z_MSC_RDPS_WindU_IsbL-0900_RLatLon0.09_PT041H.grib2 2026-05-07 02:56 658K
20260506T18Z_MSC_RDPS_WindU_IsbL-0925_RLatLon0.09_PT041H.grib2 2026-05-07 02:56 666K
20260506T18Z_MSC_RDPS_WindU_IsbL-0950_RLatLon0.09_PT041H.grib2 2026-05-07 02:56 665K
20260506T18Z_MSC_RDPS_WindU_IsbL-0970_RLatLon0.09_PT041H.grib2 2026-05-07 02:56 662K
20260506T18Z_MSC_RDPS_WindU_IsbL-0985_RLatLon0.09_PT041H.grib2 2026-05-07 02:56 658K
20260506T18Z_MSC_RDPS_WindU_IsbL-1000_RLatLon0.09_PT041H.grib2 2026-05-07 02:56 795K
20260506T18Z_MSC_RDPS_WindU_IsbL-1015_RLatLon0.09_PT041H.grib2 2026-05-07 02:56 790K
20260506T18Z_MSC_RDPS_WindV_AGL-10m_RLatLon0.09_PT041H.grib2 2026-05-07 02:56 432K
20260506T18Z_MSC_RDPS_WindV_AGL-120m_RLatLon0.09_PT041H.grib2 2026-05-07 02:56 539K
20260506T18Z_MSC_RDPS_WindV_AGL-40m_RLatLon0.09_PT041H.grib2 2026-05-07 02:56 541K
20260506T18Z_MSC_RDPS_WindV_AGL-80m_RLatLon0.09_PT041H.grib2 2026-05-07 02:56 540K
20260506T18Z_MSC_RDPS_WindV_IsbL-0001_RLatLon0.09_PT041H.grib2 2026-05-07 02:56 245K
20260506T18Z_MSC_RDPS_WindV_IsbL-0005_RLatLon0.09_PT041H.grib2 2026-05-07 02:56 286K
20260506T18Z_MSC_RDPS_WindV_IsbL-0010_RLatLon0.09_PT041H.grib2 2026-05-07 02:57 299K
20260506T18Z_MSC_RDPS_WindV_IsbL-0020_RLatLon0.09_PT041H.grib2 2026-05-07 02:57 317K
20260506T18Z_MSC_RDPS_WindV_IsbL-0030_RLatLon0.09_PT041H.grib2 2026-05-07 02:57 313K
20260506T18Z_MSC_RDPS_WindV_IsbL-0050_RLatLon0.09_PT041H.grib2 2026-05-07 02:57 344K
20260506T18Z_MSC_RDPS_WindV_IsbL-0100_RLatLon0.09_PT041H.grib2 2026-05-07 02:57 423K
20260506T18Z_MSC_RDPS_WindV_IsbL-0150_RLatLon0.09_PT041H.grib2 2026-05-07 02:57 386K
20260506T18Z_MSC_RDPS_WindV_IsbL-0175_RLatLon0.09_PT041H.grib2 2026-05-07 02:57 410K
20260506T18Z_MSC_RDPS_WindV_IsbL-0200_RLatLon0.09_PT041H.grib2 2026-05-07 02:57 331K
20260506T18Z_MSC_RDPS_WindV_IsbL-0225_RLatLon0.09_PT041H.grib2 2026-05-07 02:57 360K
20260506T18Z_MSC_RDPS_WindV_IsbL-0250_RLatLon0.09_PT041H.grib2 2026-05-07 02:57 358K
20260506T18Z_MSC_RDPS_WindV_IsbL-0275_RLatLon0.09_PT041H.grib2 2026-05-07 02:57 368K
20260506T18Z_MSC_RDPS_WindV_IsbL-0300_RLatLon0.09_PT041H.grib2 2026-05-07 02:57 365K
20260506T18Z_MSC_RDPS_WindV_IsbL-0350_RLatLon0.09_PT041H.grib2 2026-05-07 02:57 349K
20260506T18Z_MSC_RDPS_WindV_IsbL-0400_RLatLon0.09_PT041H.grib2 2026-05-07 02:57 353K
20260506T18Z_MSC_RDPS_WindV_IsbL-0450_RLatLon0.09_PT041H.grib2 2026-05-07 02:57 455K
20260506T18Z_MSC_RDPS_WindV_IsbL-0500_RLatLon0.09_PT041H.grib2 2026-05-07 02:57 458K
20260506T18Z_MSC_RDPS_WindV_IsbL-0550_RLatLon0.09_PT041H.grib2 2026-05-07 02:57 460K
20260506T18Z_MSC_RDPS_WindV_IsbL-0600_RLatLon0.09_PT041H.grib2 2026-05-07 02:57 469K
20260506T18Z_MSC_RDPS_WindV_IsbL-0650_RLatLon0.09_PT041H.grib2 2026-05-07 02:57 485K
20260506T18Z_MSC_RDPS_WindV_IsbL-0700_RLatLon0.09_PT041H.grib2 2026-05-07 02:57 508K
20260506T18Z_MSC_RDPS_WindV_IsbL-0750_RLatLon0.09_PT041H.grib2 2026-05-07 02:57 523K
20260506T18Z_MSC_RDPS_WindV_IsbL-0800_RLatLon0.09_PT041H.grib2 2026-05-07 02:57 570K
20260506T18Z_MSC_RDPS_WindV_IsbL-0850_RLatLon0.09_PT041H.grib2 2026-05-07 02:57 626K
20260506T18Z_MSC_RDPS_WindV_IsbL-0875_RLatLon0.09_PT041H.grib2 2026-05-07 02:57 644K
20260506T18Z_MSC_RDPS_WindV_IsbL-0900_RLatLon0.09_PT041H.grib2 2026-05-07 02:57 656K
20260506T18Z_MSC_RDPS_WindV_IsbL-0925_RLatLon0.09_PT041H.grib2 2026-05-07 02:57 664K
20260506T18Z_MSC_RDPS_WindV_IsbL-0950_RLatLon0.09_PT041H.grib2 2026-05-07 02:57 662K
20260506T18Z_MSC_RDPS_WindV_IsbL-0970_RLatLon0.09_PT041H.grib2 2026-05-07 02:57 800K
20260506T18Z_MSC_RDPS_WindV_IsbL-0985_RLatLon0.09_PT041H.grib2 2026-05-07 02:57 792K
20260506T18Z_MSC_RDPS_WindV_IsbL-1000_RLatLon0.09_PT041H.grib2 2026-05-07 02:57 835K
20260506T18Z_MSC_RDPS_WindV_IsbL-1015_RLatLon0.09_PT041H.grib2 2026-05-07 02:57 828K